Wind_Speed
8 8 7 7 7 7 7 8 8 9 9 9 9 10 10 10 11 12 12 12 13 14 14 13 13 13 13 14 15 15 14 15 16 17 18 18 19 19
9 9 9 8 8 8 8 9 9 9 9 9 10 11 10 11 11 12 12 13 13 14 14 14 14 14 14 14 15 14 15 16 17 18 19 19 20 20
8 9 9 9 9 9 9 9 8 9 9 10 10 11 11 11 12 12 13 13 13 14 14 15 15 15 15 16 16 16 17 18 19 20 21 21 22 22
9 9 9 10 10 10 10 10 9 9 10 10 11 12 12 13 13 13 14 15 15 15 15 15 15 15 16 17 17 17 18 19 20 21 21 22 23 24
10 10 10 10 10 11 11 11 10 11 11 10 11 12 12 14 14 15 15 15 16 15 15 16 16 17 17 18 18 19 20 21 22 22 22 22 23 23
11 11 11 12 12 12 12 12 12 12 13 12 12 12 14 14 14 15 15 15 15 15 16 17 18 18 19 19 20 21 21 22 22 22 23 23 24 24
12 12 12 13 13 13 13 13 13 14 14 14 14 15 16 15 15 15 15 15 16 16 17 18 19 19 20 20 21 21 22 22 23 23 24 24 25 26
13 13 14 14 14 14 15 15 15 15 15 15 16 16 17 17 16 16 17 17 17 17 18 18 19 20 21 21 22 22 23 24 24 24 24 25 26 26
14 15 15 16 16 16 16 16 16 17 17 16 17 18 18 18 18 18 18 19 18 19 19 20 21 22 22 22 23 23 24 24 25 25 26 26 26 27
16 16 16 16 16 17 17 18 18 18 18 18 19 19 20 20 20 21 21 21 21 21 22 22 23 24 24 24 25 25 26 26 26 26 27 27 28 29
19 18 18 18 18 18 19 19 19 20 20 20 21 21 21 21 22 23 22 22 23 23 24 24 24 25 26 26 27 27 28 28 28 28 29 30 30 31
21 20 20 20 20 20 21 21 21 22 22 22 22 22 22 23 24 24 24 24 24 25 26 26 26 27 28 28 29 29 30 30 30 30 31 31 32 32
22 23 23 23 23 23 24 24 24 24 24 24 24 25 25 25 25 25 26 26 27 27 27 28 28 29 30 30 31 31 31 32 32 32 32 33 33 34
24 24 25 25 25 25 26 26 26 26 26 26 27 27 27 27 27 28 28 29 29 29 29 30 31 31 32 32 33 33 33 33 33 33 34 34 35 35
25 25 26 26 27 27 27 27 28 28 28 28 28 28 29 29 30 30 30 30 30 31 31 32 32 33 34 34 34 34 35 34 34 34 35 35 36 37
26 26 27 27 28 28 28 29 30 30 30 30 30 30 31 31 31 32 32 32 32 32 33 33 34 35 35 35 35 35 36 36 36 36 36 37 37 39
28 27 27 28 29 30 30 31 31 31 32 32 32 33 33 34 34 34 34 34 34 34 34 34 34 34 35 35 35 35 36 37 37 38 38 39 40 41
29 29 29 29 30 30 31 31 32 33 33 34 34 35 35 35 35 35 35 36 35 35 35 35 35 35 35 35 35 36 36 37 37 38 40 40 41 41
30 30 31 31 31 32 32 33 33 34 35 35 35 36 36 36 36 36 36 36 36 36 36 36 35 35 35 34 35 36 36 37 38 39 39 40 40 40
31 31 32 32 32 33 34 34 35 36 36 36 37 37 36 36 36 36 36 37 37 37 36 36 36 36 36 36 36 37 38 39 39 39 39 40 40 40
32 32 33 33 33 33 34 35 35 36 37 37 37 37 37 37 36 36 36 37 37 37 36 36 36 37 37 38 38 37 38 39 39 39 39 39 39 39
34 34 34 35 34 34 34 34 35 36 37 37 37 37 37 37 37 37 37 37 36 36 36 36 36 36 37 37 37 38 38 38 38 39 39 39 39 38
34 35 35 35 35 35 36 36 36 36 36 36 36 35 35 35 35 36 37 36 36 35 35 35 35 35 36 37 38 38 38 38 38 39 39 39 39 39
Wind_Direction
275 278 284 282 281 281 279 281 286 287 288 285 284 285 283 281 282 282 282 281 281 279 281 280 282 285 287 286 283 283 283 280 279 280 281 282 282 282
274 278 281 279 280 280 280 286 289 292 291 290 287 286 283 280 281 282 282 281 280 279 280 280 283 285 286 288 286 284 285 285 284 284 284 284 284 284
273 274 274 276 279 282 282 286 294 295 295 296 295 293 289 284 281 280 280 280 281 282 283 282 282 283 287 289 287 286 285 284 287 287 284 283 283 284
271 272 271 272 276 279 282 288 290 294 296 294 294 295 294 291 288 282 279 280 281 281 282 284 285 286 288 289 288 286 285 287 289 289 287 285 285 285
271 272 270 273 275 279 285 288 290 291 294 291 291 291 290 291 290 285 282 281 282 281 282 284 286 286 288 290 289 289 289 290 291 290 289 287 287 287
272 272 272 273 275 278 281 284 288 289 293 294 290 294 297 295 294 293 289 286 287 285 284 284 285 287 288 290 290 289 292 292 292 291 290 288 288 289
272 273 275 276 276 278 281 282 285 288 291 293 292 293 298 299 298 296 293 290 289 287 287 287 287 287 288 289 290 290 292 293 293 292 291 290 290 290
272 273 275 277 278 279 280 281 284 287 288 290 290 293 295 296 296 297 295 292 289 289 290 289 288 287 288 289 289 290 291 293 293 293 293 292 292 291
272 274 275 276 276 279 281 282 284 286 287 289 289 290 292 293 293 293 294 292 291 290 289 289 289 288 289 290 290 290 290 292 293 293 293 292 292 292
270 272 273 276 278 279 280 281 282 283 284 286 288 289 289 289 289 289 289 290 290 289 289 290 289 289 290 290 291 291 291 292 292 293 294 294 294 294
273 273 274 275 277 279 282 283 283 283 283 285 288 288 288 288 289 288 287 288 289 288 288 289 290 290 290 290 290 290 291 291 291 293 293 294 294 294
273 273 274 275 275 277 279 281 281 281 282 283 284 285 286 287 288 287 285 286 287 288 288 287 288 289 290 291 290 290 291 291 290 291 292 292 293 293
273 274 274 275 275 276 278 279 281 281 281 283 283 285 286 286 286 286 286 286 287 288 287 287 286 287 289 290 290 290 291 291 290 290 291 292 292 292
274 274 274 275 276 276 277 279 280 281 283 284 284 285 286 285 284 285 285 285 286 287 286 286 287 287 288 289 289 290 291 292 291 291 291 292 292 292
274 275 275 275 275 277 278 279 280 281 282 283 284 284 285 285 285 285 285 285 285 286 287 287 287 287 287 288 289 290 290 291 292 291 292 292 293 293
274 275 276 277 277 277 278 280 280 281 282 282 282 283 284 285 286 285 285 286 285 285 286 287 287 287 288 289 289 289 289 291 292 291 291 293 293 294
274 275 277 278 278 278 278 279 280 281 282 281 282 283 283 284 286 286 286 287 286 286 287 287 287 287 288 289 289 289 290 290 291 291 292 292 293 294
273 275 276 277 277 277 278 279 280 281 281 281 282 282 283 285 284 284 285 285 286 286 286 287 287 286 287 288 288 289 290 291 292 292 293 293 295 295
272 274 275 276 277 279 279 280 281 282 283 283 284 284 284 283 283 284 285 286 286 286 287 287 287 287 287 288 289 290 291 292 293 294 295 295 296 296
273 275 277 277 278 278 279 281 282 283 283 284 284 284 283 283 282 283 285 286 286 286 286 286 286 286 286 287 288 289 290 291 293 294 295 296 296 296
274 276 277 277 278 279 280 281 282 282 283 284 284 283 283 282 282 282 284 285 285 285 285 285 286 286 286 287 288 289 290 292 293 295 296 296 296 297
274 275 277 277 279 280 281 282 283 283 283 283 283 283 283 282 283 283 283 284 285 284 284 284 285 287 287 288 289 290 291 292 293 294 295 296 296 296
274 275 277 278 278 280 281 282 283 284 284 282 281 281 283 284 284 284 284 284 283 283 284 286 288 289 289 290 291 291 292 293 293 294 295 295 296 296
Height
5824 5824 5823 5822 5822 5821 5821 5821 5820 5819 5818 5817 5816 5815 5815 5814 5814 5813 5812 5812 5811 5810 5810 5809 5808 5807 5807 5806 5805 5804 5803 5803 5802 5802 5801 5800 5799 5798
5822 5822 5821 5821 5820 5819 5819 5818 5818 5817 5816 5815 5814 5813 5812 5811 5810 5810 5809 5808 5807 5807 5806 5805 5805 5804 5803 5802 5801 5800 5800 5799 5798 5797 5796 5795 5793 5792
5820 5820 5819 5819 5818 5817 5817 5816 5815 5814 5813 5812 5811 5810 5809 5808 5807 5806 5805 5805 5804 5803 5803 5802 5801 5800 5799 5798 5797 5796 5795 5794 5793 5791 5790 5789 5788 5786
5818 5817 5817 5816 5816 5815 5815 5814 5813 5812 5811 5810 5808 5807 5806 5805 5803 5802 5802 5801 5800 5799 5799 5798 5797 5796 5795 5794 5793 5792 5790 5789 5787 5786 5784 5783 5782 5780
5815 5815 5814 5814 5813 5812 5812 5811 5810 5809 5808 5807 5805 5804 5803 5801 5800 5798 5797 5797 5796 5795 5795 5794 5793 5792 5791 5789 5788 5787 5785 5783 5782 5780 5778 5776 5775 5773
5812 5811 5811 5811 5810 5809 5809 5808 5807 5806 5805 5804 5802 5801 5800 5798 5796 5795 5793 5793 5792 5791 5790 5789 5788 5787 5786 5784 5783 5781 5779 5777 5775 5773 5772 5770 5768 5767
5809 5808 5808 5807 5807 5806 5805 5804 5803 5802 5801 5800 5799 5797 5796 5794 5793 5791 5789 5788 5788 5787 5786 5785 5783 5782 5780 5779 5777 5775 5774 5772 5769 5767 5765 5763 5762 5760
5805 5804 5804 5803 5802 5802 5801 5800 5799 5798 5797 5796 5795 5794 5792 5791 5789 5787 5786 5784 5783 5783 5781 5780 5778 5776 5775 5773 5771 5769 5767 5765 5763 5761 5759 5756 5754 5752
5801 5800 5799 5799 5798 5797 5796 5796 5795 5794 5793 5792 5790 5789 5788 5786 5784 5783 5781 5780 5779 5777 5776 5774 5772 5771 5769 5767 5765 5763 5761 5759 5756 5754 5752 5749 5747 5745
5796 5795 5795 5794 5793 5792 5791 5791 5790 5789 5788 5787 5785 5784 5783 5781 5780 5778 5776 5775 5773 5772 5770 5768 5767 5765 5762 5760 5758 5756 5754 5751 5749 5747 5744 5742 5739 5737
5791 5790 5789 5789 5788 5787 5786 5785 5784 5783 5782 5781 5779 5778 5777 5775 5773 5772 5770 5769 5767 5765 5763 5762 5760 5758 5755 5753 5751 5748 5746 5744 5741 5739 5736 5733 5731 5728
5784 5784 5783 5783 5782 5781 5780 5779 5778 5777 5776 5775 5773 5772 5770 5769 5767 5765 5763 5762 5760 5758 5756 5754 5752 5750 5748 5746 5743 5740 5738 5735 5732 5730 5727 5725 5722 5719
5778 5777 5777 5776 5775 5774 5774 5773 5771 5770 5769 5767 5766 5764 5763 5761 5760 5758 5756 5754 5752 5750 5748 5746 5744 5741 5739 5737 5735 5732 5729 5726 5723 5721 5718 5715 5712 5709
5771 5770 5769 5768 5768 5767 5766 5765 5764 5763 5761 5760 5758 5757 5755 5753 5752 5750 5747 5745 5743 5741 5739 5737 5735 5732 5730 5728 5725 5723 5720 5717 5714 5711 5708 5705 5702 5698
5763 5762 5761 5760 5760 5759 5758 5757 5756 5755 5753 5752 5750 5748 5747 5744 5742 5740 5738 5736 5734 5732 5729 5727 5725 5722 5720 5718 5715 5712 5710 5707 5704 5701 5698 5694 5691 5687
5755 5754 5753 5752 5751 5750 5750 5749 5747 5746 5744 5743 5741 5739 5737 5735 5733 5731 5729 5726 5724 5722 5719 5716 5714 5712 5709 5707 5704 5702 5699 5696 5693 5690 5687 5683 5680 5676
5746 5745 5744 5743 5743 5741 5740 5739 5738 5736 5735 5733 5731 5729 5727 5725 5723 5721 5718 5715 5713 5711 5708 5706 5703 5701 5698 5696 5694 5691 5688 5685 5682 5679 5675 5672 5668 5664
5737 5736 5735 5734 5733 5732 5731 5729 5728 5726 5725 5723 5721 5719 5717 5714 5712 5709 5707 5704 5702 5699 5697 5694 5692 5690 5688 5685 5683 5679 5677 5673 5670 5667 5663 5660 5656 5652
5727 5726 5725 5724 5723 5722 5720 5719 5718 5716 5714 5712 5710 5707 5705 5702 5700 5698 5696 5693 5691 5688 5686 5683 5680 5678 5676 5674 5672 5668 5665 5662 5658 5655 5651 5647 5644 5639
5717 5716 5715 5714 5713 5711 5710 5708 5707 5705 5702 5700 5698 5696 5693 5691 5689 5686 5684 5682 5679 5677 5674 5672 5669 5667 5665 5663 5660 5657 5654 5650 5647 5643 5639 5635 5631 5627
5707 5706 5704 5703 5702 5700 5699 5697 5695 5693 5691 5688 5686 5684 5681 5679 5677 5675 5673 5670 5668 5665 5663 5661 5658 5655 5653 5651 5648 5645 5642 5638 5634 5631 5627 5623 5620 5616
5696 5695 5693 5692 5691 5689 5687 5685 5683 5681 5679 5676 5674 5672 5670 5668 5665 5663 5661 5659 5656 5654 5652 5649 5647 5644 5642 5639 5636 5633 5630 5627 5623 5619 5615 5611 5607 5604
5684 5683 5682 5681 5679 5677 5675 5673 5671 5669 5667 5664 5662 5660 5658 5656 5654 5652 5650 5647 5645 5643 5641 5638 5636 5633 5630 5627 5625 5621 5618 5615 5611 5607 5604 5600 5596 5592